User: anonymous   Login
Location: Unspecified
(0.0000°N, 0.0000°E)
Time: 10:15:50
(UTC+00:00)
Language:

SCD-1 - Orbit

View from above orbital plane
View from above orbital plane
View from above satellite
View from above satellite

Ground track
Ground track

The orbit data is extracted from the following two-line orbital elements,

1 22490U 93009B   19081.05162008 +.00000223 +00000-0 +11052-4 0  9999
2 22490 024.9702 304.7438 0042826 281.5669 237.3492 14.44545483378371
Epoch (UTC): 22 March 2019 01:14:19
Eccentricity: 0.0042826
inclination: 24.9702°
perigee height: 713 km
apogee height: 774 km
right ascension of ascending node: 304.7438°
argument of perigee: 281.5669°
revolutions per day: 14.44545483
mean anomaly at epoch: 237.3492°
orbit number at epoch: 37837

The dashed part of the orbit path shows where the satellite is in the earth's shadow,  

DLR